Time,TemperatureF,DewpointF,PressureIn,WindDirection,WindDirectionDegrees,WindSpeedMPH,WindSpeedGustMPH,Humidity,HourlyPrecipIn,Conditions,Clouds,dailyrainin,SoftwareType,DateUTC
2013-09-24 00:01:00,59.5,49.3,-100.00,SE,126,2.0,2.0,69,0.00,,,0.00,meteohub,2013-09-24 05:01:00,
2013-09-24 00:07:00,59.5,49.8,-100.00,ESE,103,0.0,4.0,70,0.00,,,0.00,meteohub,2013-09-24 05:07:00,
2013-09-24 00:12:00,59.4,49.6,-100.00,ESE,120,0.0,4.0,70,0.00,,,0.00,meteohub,2013-09-24 05:12:00,
2013-09-24 00:17:00,59.4,49.6,-100.00,ESE,107,0.0,4.0,70,0.00,,,0.00,meteohub,2013-09-24 05:17:00,
2013-09-24 00:22:00,59.5,49.3,-100.00,ESE,116,0.0,4.0,69,0.00,,,0.00,meteohub,2013-09-24 05:22:00,
2013-09-24 00:27:00,59.7,49.5,-100.00,SE,128,0.0,5.0,69,0.00,,,0.00,meteohub,2013-09-24 05:27:00,
2013-09-24 00:32:00,59.7,49.5,-100.00,SE,130,0.0,6.0,69,0.00,,,0.00,meteohub,2013-09-24 05:32:00,
2013-09-24 00:37:00,59.7,49.5,-100.00,SE,128,0.0,6.0,69,0.00,,,0.00,meteohub,2013-09-24 05:37:00,
2013-09-24 00:42:00,59.7,49.5,-100.00,SE,128,0.0,6.0,69,0.00,,,0.00,meteohub,2013-09-24 05:42:00,
2013-09-24 00:47:00,59.5,49.3,-100.00,ESE,123,0.0,4.0,69,0.00,,,0.00,meteohub,2013-09-24 05:47:00,
2013-09-24 00:52:00,59.5,49.3,-100.00,ESE,119,0.0,4.0,69,0.00,,,0.00,meteohub,2013-09-24 05:52:00,
2013-09-24 00:57:00,59.5,49.8,-100.00,ESE,123,0.0,4.0,70,0.00,,,0.00,meteohub,2013-09-24 05:57:00,
2013-09-24 01:02:00,59.2,49.5,-100.00,SE,125,0.0,4.0,70,0.00,,,0.00,meteohub,2013-09-24 06:02:00,
2013-09-24 01:07:00,59.0,49.6,-100.00,SE,126,0.0,1.0,71,0.00,,,0.00,meteohub,2013-09-24 06:07:00,
2013-09-24 01:12:00,59.0,49.6,-100.00,SE,125,0.0,1.0,71,0.00,,,0.00,meteohub,2013-09-24 06:12:00,
2013-09-24 01:17:00,58.6,49.3,-100.00,SE,126,0.0,1.0,71,0.00,,,0.00,meteohub,2013-09-24 06:17:00,
2013-09-24 01:22:00,58.3,49.3,-100.00,SE,126,0.0,1.0,72,0.00,,,0.00,meteohub,2013-09-24 06:22:00,
2013-09-24 01:27:00,57.9,49.3,-100.00,SE,125,0.0,0.0,73,0.00,,,0.00,meteohub,2013-09-24 06:27:00,
2013-09-24 01:32:00,57.7,49.1,-100.00,SE,125,0.0,0.0,73,0.00,,,0.00,meteohub,2013-09-24 06:32:00,
2013-09-24 01:37:00,57.4,49.1,-100.00,ESE,123,0.0,0.0,74,0.00,,,0.00,meteohub,2013-09-24 06:37:00,
2013-09-24 01:42:00,57.4,49.1,-100.00,ESE,123,0.0,1.0,74,0.00,,,0.00,meteohub,2013-09-24 06:42:00,
2013-09-24 01:48:00,57.4,49.1,-100.00,ESE,122,0.0,2.0,74,0.00,,,0.00,meteohub,2013-09-24 06:48:00,
2013-09-24 01:53:00,57.4,49.5,-100.00,ESE,121,0.0,2.0,75,0.00,,,0.00,meteohub,2013-09-24 06:53:00,
2013-09-24 01:58:00,57.6,49.6,-100.00,ESE,120,1.0,2.0,75,0.00,,,0.00,meteohub,2013-09-24 06:58:00,
2013-09-24 02:03:00,57.6,49.6,-100.00,ESE,115,0.0,2.0,75,0.00,,,0.00,meteohub,2013-09-24 07:03:00,
2013-09-24 02:08:00,57.4,49.5,-100.00,ESE,116,0.0,2.0,75,0.00,,,0.00,meteohub,2013-09-24 07:08:00,
2013-09-24 02:13:00,57.4,49.5,-100.00,ESE,115,0.0,2.0,75,0.00,,,0.00,meteohub,2013-09-24 07:13:00,
2013-09-24 02:18:00,57.4,49.5,-100.00,ESE,115,0.0,0.0,75,0.00,,,0.00,meteohub,2013-09-24 07:18:00,
2013-09-24 02:23:00,57.2,49.3,-100.00,ESE,115,0.0,1.0,75,0.00,,,0.00,meteohub,2013-09-24 07:23:00,
2013-09-24 02:28:00,57.2,49.6,-100.00,ESE,114,0.0,1.0,76,0.00,,,0.00,meteohub,2013-09-24 07:28:00,
2013-09-24 02:33:00,57.4,49.8,-100.00,ESE,115,0.0,1.0,76,0.00,,,0.00,meteohub,2013-09-24 07:33:00,
2013-09-24 02:38:00,57.4,49.5,-100.00,East,91,0.0,3.0,75,0.00,,,0.00,meteohub,2013-09-24 07:38:00,
2013-09-24 02:43:00,57.4,49.5,-100.00,East,94,0.0,3.0,75,0.00,,,0.00,meteohub,2013-09-24 07:43:00,
2013-09-24 02:48:00,57.6,50.0,-100.00,East,94,0.0,3.0,76,0.00,,,0.00,meteohub,2013-09-24 07:48:00,
2013-09-24 02:54:00,57.4,49.8,-100.00,East,96,0.0,2.0,76,0.00,,,0.00,meteohub,2013-09-24 07:54:00,
2013-09-24 02:59:00,57.2,49.6,-100.00,East,96,0.0,2.0,76,0.00,,,0.00,meteohub,2013-09-24 07:59:00,
2013-09-24 03:04:00,57.0,49.8,-100.00,East,96,0.0,2.0,77,0.00,,,0.00,meteohub,2013-09-24 08:04:00,
2013-09-24 03:09:00,56.8,49.6,-100.00,East,97,0.0,2.0,77,0.00,,,0.00,meteohub,2013-09-24 08:09:00,
2013-09-24 03:14:00,56.8,49.6,-100.00,East,98,0.0,1.0,77,0.00,,,0.00,meteohub,2013-09-24 08:14:00,
2013-09-24 03:19:00,56.8,49.6,-100.00,East,100,0.0,2.0,77,0.00,,,0.00,meteohub,2013-09-24 08:19:00,
2013-09-24 03:24:00,56.8,50.0,-100.00,East,99,0.0,2.0,78,0.00,,,0.00,meteohub,2013-09-24 08:24:00,
2013-09-24 03:29:00,56.7,49.8,-100.00,ESE,115,0.0,1.0,78,0.00,,,0.00,meteohub,2013-09-24 08:29:00,
2013-09-24 03:34:00,56.8,50.0,-100.00,ESE,114,0.0,1.0,78,0.00,,,0.00,meteohub,2013-09-24 08:34:00,
2013-09-24 03:39:00,56.8,50.0,-100.00,ESE,107,0.0,1.0,78,0.00,,,0.00,meteohub,2013-09-24 08:39:00,
2013-09-24 03:44:00,56.8,50.0,-100.00,ESE,108,0.0,1.0,78,0.00,,,0.00,meteohub,2013-09-24 08:44:00,
2013-09-24 03:49:00,56.8,50.0,-100.00,ESE,106,0.0,1.0,78,0.00,,,0.00,meteohub,2013-09-24 08:49:00,
2013-09-24 03:54:00,56.7,49.8,-100.00,ESE,107,0.0,1.0,78,0.00,,,0.00,meteohub,2013-09-24 08:54:00,
2013-09-24 03:59:00,56.7,49.8,-100.00,ESE,117,0.0,2.0,78,0.00,,,0.00,meteohub,2013-09-24 08:59:00,
2013-09-24 04:04:00,56.8,50.4,-100.00,SE,130,0.0,2.0,79,0.00,,,0.00,meteohub,2013-09-24 09:04:00,
2013-09-24 04:09:00,57.0,50.2,-100.00,SE,126,0.0,1.0,78,0.00,,,0.00,meteohub,2013-09-24 09:09:00,
2013-09-24 04:14:00,57.0,50.2,-100.00,ESE,121,0.0,1.0,78,0.00,,,0.00,meteohub,2013-09-24 09:14:00,
2013-09-24 04:19:00,56.8,50.4,-100.00,ESE,122,0.0,3.0,79,0.00,,,0.00,meteohub,2013-09-24 09:19:00,
2013-09-24 04:25:00,56.8,50.4,-100.00,ESE,121,0.0,3.0,79,0.00,,,0.00,meteohub,2013-09-24 09:25:00,
2013-09-24 04:30:00,56.7,50.2,-100.00,SE,128,0.0,1.0,79,0.00,,,0.00,meteohub,2013-09-24 09:30:00,
2013-09-24 04:35:00,56.7,50.2,-100.00,ESE,118,0.0,1.0,79,0.00,,,0.00,meteohub,2013-09-24 09:35:00,
2013-09-24 04:40:00,56.5,50.4,-100.00,ESE,115,0.0,1.0,80,0.00,,,0.00,meteohub,2013-09-24 09:40:00,
2013-09-24 04:45:00,56.1,50.0,-100.00,ESE,114,0.0,1.0,80,0.00,,,0.00,meteohub,2013-09-24 09:45:00,
2013-09-24 04:50:00,55.9,49.8,-100.00,ESE,104,0.0,1.0,80,0.00,,,0.00,meteohub,2013-09-24 09:50:00,
2013-09-24 04:55:00,55.4,49.6,-100.00,ESE,104,0.0,1.0,81,0.00,,,0.00,meteohub,2013-09-24 09:55:00,
2013-09-24 05:00:00,55.0,49.3,-100.00,ESE,103,0.0,1.0,81,0.00,,,0.00,meteohub,2013-09-24 10:00:00,
2013-09-24 05:05:00,54.7,49.3,-100.00,East,101,0.0,1.0,82,0.00,,,0.00,meteohub,2013-09-24 10:05:00,
2013-09-24 05:10:00,54.5,49.1,-100.00,East,101,0.0,1.0,82,0.00,,,0.00,meteohub,2013-09-24 10:10:00,
2013-09-24 05:15:00,54.3,49.3,-100.00,East,90,0.0,1.0,83,0.00,,,0.00,meteohub,2013-09-24 10:15:00,
2013-09-24 05:20:00,54.3,49.3,-100.00,East,94,0.0,1.0,83,0.00,,,0.00,meteohub,2013-09-24 10:20:00,
2013-09-24 05:25:00,54.3,49.3,-100.00,East,94,0.0,1.0,83,0.00,,,0.00,meteohub,2013-09-24 10:25:00,
2013-09-24 05:30:00,54.3,49.6,-100.00,East,94,0.0,1.0,84,0.00,,,0.00,meteohub,2013-09-24 10:30:00,
2013-09-24 05:35:00,54.5,49.5,-100.00,East,94,0.0,1.0,83,0.00,,,0.00,meteohub,2013-09-24 10:35:00,
2013-09-24 05:40:00,54.7,49.6,-100.00,East,94,0.0,1.0,83,0.00,,,0.00,meteohub,2013-09-24 10:40:00,
2013-09-24 05:45:00,54.7,49.6,-100.00,East,94,0.0,1.0,83,0.00,,,0.00,meteohub,2013-09-24 10:45:00,
2013-09-24 05:50:00,54.7,49.6,-100.00,East,94,0.0,1.0,83,0.00,,,0.00,meteohub,2013-09-24 10:50:00,
2013-09-24 05:55:00,54.7,49.6,-100.00,East,96,0.0,1.0,83,0.00,,,0.00,meteohub,2013-09-24 10:55:00,
2013-09-24 06:00:00,54.5,49.5,-100.00,East,88,0.0,1.0,83,0.00,,,0.00,meteohub,2013-09-24 11:00:00,
2013-09-24 06:05:00,54.5,49.8,-100.00,East,89,0.0,1.0,84,0.00,,,0.00,meteohub,2013-09-24 11:05:00,
2013-09-24 06:10:00,54.5,49.8,-100.00,East,89,0.0,1.0,84,0.00,,,0.00,meteohub,2013-09-24 11:10:00,
2013-09-24 06:15:00,54.5,49.8,-100.00,East,89,0.0,1.0,84,0.00,,,0.00,meteohub,2013-09-24 11:15:00,
2013-09-24 06:20:00,54.3,49.6,-100.00,East,90,0.0,1.0,84,0.00,,,0.00,meteohub,2013-09-24 11:20:00,
2013-09-24 06:25:00,54.3,49.6,-100.00,East,90,0.0,1.0,84,0.00,,,0.00,meteohub,2013-09-24 11:25:00,
2013-09-24 06:30:00,54.1,49.8,-100.00,East,90,0.0,1.0,85,0.00,,,0.00,meteohub,2013-09-24 11:30:00,
2013-09-24 06:35:00,54.3,49.8,-100.00,East,90,0.0,1.0,85,0.00,,,0.00,meteohub,2013-09-24 11:35:00,
2013-09-24 06:40:00,54.1,49.8,-100.00,East,90,0.0,1.0,85,0.00,,,0.00,meteohub,2013-09-24 11:40:00,
2013-09-24 06:45:00,54.1,49.8,-100.00,East,90,0.0,1.0,85,0.00,,,0.00,meteohub,2013-09-24 11:45:00,
2013-09-24 06:51:00,54.1,49.8,-100.00,East,91,0.0,2.0,85,0.00,,,0.00,meteohub,2013-09-24 11:51:00,
2013-09-24 06:56:00,54.0,49.6,-100.00,East,91,0.0,2.0,85,0.00,,,0.00,meteohub,2013-09-24 11:56:00,
2013-09-24 07:01:00,54.0,49.6,-100.00,East,91,0.0,2.0,85,0.00,,,0.00,meteohub,2013-09-24 12:01:00,
2013-09-24 07:06:00,54.0,49.8,-100.00,East,91,0.0,1.0,86,0.00,,,0.00,meteohub,2013-09-24 12:06:00,
2013-09-24 07:11:00,54.0,49.8,-100.00,East,89,0.0,1.0,86,0.00,,,0.00,meteohub,2013-09-24 12:11:00,
2013-09-24 07:16:00,54.1,50.0,-100.00,East,94,0.0,3.0,86,0.00,,,0.00,meteohub,2013-09-24 12:16:00,
2013-09-24 07:21:00,54.3,50.2,-100.00,East,96,0.0,3.0,86,0.00,,,0.00,meteohub,2013-09-24 12:21:00,
2013-09-24 07:26:00,54.7,50.5,-100.00,East,94,0.0,3.0,86,0.00,,,0.00,meteohub,2013-09-24 12:26:00,
2013-09-24 07:31:00,54.9,50.4,-100.00,East,95,0.0,3.0,85,0.00,,,0.00,meteohub,2013-09-24 12:31:00,
2013-09-24 07:36:00,55.2,50.7,-100.00,East,95,0.0,3.0,85,0.00,,,0.00,meteohub,2013-09-24 12:36:00,
2013-09-24 07:41:00,55.6,51.1,-100.00,East,101,0.0,2.0,85,0.00,,,0.00,meteohub,2013-09-24 12:41:00,
2013-09-24 07:46:00,55.9,51.3,-100.00,East,99,0.0,2.0,84,0.00,,,0.00,meteohub,2013-09-24 12:46:00,
2013-09-24 07:51:00,56.5,51.4,-100.00,East,101,0.0,2.0,83,0.00,,,0.00,meteohub,2013-09-24 12:51:00,
2013-09-24 07:56:00,56.8,51.8,-100.00,ESE,108,0.0,1.0,83,0.00,,,0.00,meteohub,2013-09-24 12:56:00,
2013-09-24 08:01:00,57.2,52.2,-100.00,ESE,105,0.0,1.0,83,0.00,,,0.00,meteohub,2013-09-24 13:01:00,
2013-09-24 08:05:00,57.6,52.2,-100.00,East,96,3.0,3.0,82,0.00,,,0.00,meteohub,2013-09-24 13:05:00,
2013-09-24 08:20:00,59.0,53.2,-100.00,ENE,73,2.0,5.0,81,0.00,,,0.00,meteohub,2013-09-24 13:20:00,
2013-09-24 08:25:00,59.9,53.8,-100.00,ENE,78,4.0,5.0,80,0.00,,,0.00,meteohub,2013-09-24 13:25:00,
2013-09-24 08:30:00,60.6,54.1,-100.00,ESE,119,5.0,5.0,79,0.00,,,0.00,meteohub,2013-09-24 13:30:00,
2013-09-24 08:35:00,61.3,54.5,-100.00,SE,129,0.0,7.0,78,0.00,,,0.00,meteohub,2013-09-24 13:35:00,
2013-09-24 08:40:00,61.9,54.9,-100.00,ESE,114,0.0,7.0,78,0.00,,,0.00,meteohub,2013-09-24 13:40:00,
2013-09-24 08:45:00,62.4,54.7,-100.00,ESE,115,3.0,7.0,76,0.00,,,0.00,meteohub,2013-09-24 13:45:00,
2013-09-24 08:50:00,63.1,55.4,-100.00,SE,125,3.0,9.0,76,0.00,,,0.00,meteohub,2013-09-24 13:50:00,
2013-09-24 08:55:00,63.7,55.6,-100.00,ESE,113,5.0,9.0,75,0.00,,,0.00,meteohub,2013-09-24 13:55:00,
2013-09-24 09:01:00,64.4,56.3,-100.00,ESE,114,4.0,9.0,75,0.00,,,0.00,meteohub,2013-09-24 14:01:00,
2013-09-24 09:06:00,64.8,56.3,-100.00,SE,130,2.0,6.0,74,0.00,,,0.00,meteohub,2013-09-24 14:06:00,
2013-09-24 09:11:00,64.9,56.1,-100.00,ESE,122,3.0,12.0,73,0.00,,,0.00,meteohub,2013-09-24 14:11:00,
2013-09-24 09:16:00,65.3,56.1,-100.00,ESE,116,7.0,12.0,72,0.00,,,0.00,meteohub,2013-09-24 14:16:00,
2013-09-24 09:21:00,65.8,56.5,-100.00,ESE,103,4.0,12.0,72,0.00,,,0.00,meteohub,2013-09-24 14:21:00,
2013-09-24 09:26:00,66.4,56.7,-100.00,ESE,122,5.0,12.0,71,0.00,,,0.00,meteohub,2013-09-24 14:26:00,
2013-09-24 09:31:00,66.6,56.8,-100.00,ESE,111,8.0,12.0,71,0.00,,,0.00,meteohub,2013-09-24 14:31:00,
2013-09-24 09:36:00,66.6,56.8,-100.00,ESE,120,3.0,11.0,71,0.00,,,0.00,meteohub,2013-09-24 14:36:00,
2013-09-24 09:41:00,66.7,57.4,-100.00,ESE,119,2.0,11.0,72,0.00,,,0.00,meteohub,2013-09-24 14:41:00,
2013-09-24 09:46:00,67.3,57.2,-100.00,ESE,117,1.0,9.0,70,0.00,,,0.00,meteohub,2013-09-24 14:46:00,
2013-09-24 09:51:00,67.5,57.4,-100.00,ESE,117,3.0,7.0,70,0.00,,,0.00,meteohub,2013-09-24 14:51:00,
2013-09-24 09:56:00,66.9,57.2,-100.00,ESE,115,4.0,6.0,71,0.00,,,0.00,meteohub,2013-09-24 14:56:00,
2013-09-24 10:01:00,67.6,57.9,-100.00,ESE,102,1.0,6.0,71,0.00,,,0.00,meteohub,2013-09-24 15:01:00,
2013-09-24 10:06:00,69.3,58.6,-100.00,ESE,113,3.0,6.0,69,0.00,,,0.00,meteohub,2013-09-24 15:06:00,
2013-09-24 10:11:00,70.2,59.2,-100.00,ESE,117,6.0,6.0,68,0.00,,,0.00,meteohub,2013-09-24 15:11:00,
2013-09-24 10:16:00,70.2,58.6,-100.00,SE,134,4.0,9.0,67,0.00,,,0.00,meteohub,2013-09-24 15:16:00,
2013-09-24 10:21:00,70.0,58.5,-100.00,ESE,109,3.0,11.0,67,0.00,,,0.00,meteohub,2013-09-24 15:21:00,
2013-09-24 10:26:00,70.3,58.8,-100.00,ESE,111,4.0,11.0,67,0.00,,,0.00,meteohub,2013-09-24 15:26:00,
2013-09-24 10:31:00,71.2,59.4,-100.00,East,84,4.0,11.0,66,0.00,,,0.00,meteohub,2013-09-24 15:31:00,
2013-09-24 10:36:00,72.1,59.4,-100.00,East,80,3.0,7.0,64,0.00,,,0.00,meteohub,2013-09-24 15:36:00,
2013-09-24 10:41:00,72.5,59.5,-100.00,East,86,1.0,7.0,64,0.00,,,0.00,meteohub,2013-09-24 15:41:00,
2013-09-24 10:46:00,72.9,59.9,-100.00,East,90,2.0,7.0,64,0.00,,,0.00,meteohub,2013-09-24 15:46:00,
2013-09-24 10:51:00,73.6,60.3,-100.00,East,101,6.0,7.0,63,0.00,,,0.00,meteohub,2013-09-24 15:51:00,
2013-09-24 10:56:00,74.3,60.8,-100.00,SE,128,2.0,7.0,63,0.00,,,0.00,meteohub,2013-09-24 15:56:00,
2013-09-24 11:01:00,73.9,60.1,-100.00,East,96,2.0,7.0,62,0.00,,,0.00,meteohub,2013-09-24 16:01:00,
2013-09-24 11:06:00,73.8,59.9,-100.00,East,95,10.0,10.0,62,0.00,,,0.00,meteohub,2013-09-24 16:06:00,
2013-09-24 11:11:00,74.5,60.6,-100.00,SE,142,6.0,10.0,62,0.00,,,0.00,meteohub,2013-09-24 16:11:00,
2013-09-24 11:16:00,74.5,60.6,-100.00,ESE,109,7.0,10.0,62,0.00,,,0.00,meteohub,2013-09-24 16:16:00,
2013-09-24 11:21:00,74.8,60.4,-100.00,ESE,119,4.0,10.0,61,0.00,,,0.00,meteohub,2013-09-24 16:21:00,
2013-09-24 11:26:00,75.4,60.4,-100.00,ESE,119,6.0,10.0,60,0.00,,,0.00,meteohub,2013-09-24 16:26:00,
2013-09-24 11:31:00,76.1,61.7,-100.00,ESE,108,6.0,10.0,61,0.00,,,0.00,meteohub,2013-09-24 16:31:00,
2013-09-24 11:36:00,76.3,61.3,-100.00,East,101,3.0,10.0,60,0.00,,,0.00,meteohub,2013-09-24 16:36:00,
2013-09-24 11:41:00,76.5,61.5,-100.00,East,94,1.0,10.0,60,0.00,,,0.00,meteohub,2013-09-24 16:41:00,
2013-09-24 11:46:00,76.8,61.3,-100.00,ESE,107,3.0,11.0,59,0.00,,,0.00,meteohub,2013-09-24 16:46:00,
2013-09-24 11:51:00,77.2,61.3,-100.00,ESE,107,6.0,11.0,58,0.00,,,0.00,meteohub,2013-09-24 16:51:00,
2013-09-24 11:56:00,77.2,61.3,-100.00,ENE,75,4.0,13.0,58,0.00,,,0.00,meteohub,2013-09-24 16:56:00,
2013-09-24 12:01:00,76.6,61.7,-100.00,ESE,112,5.0,13.0,60,0.00,,,0.00,meteohub,2013-09-24 17:01:00,
2013-09-24 12:06:00,77.0,61.5,-100.00,ESE,121,6.0,12.0,59,0.00,,,0.00,meteohub,2013-09-24 17:06:00,
2013-09-24 12:11:00,76.6,61.7,-100.00,East,96,6.0,13.0,60,0.00,,,0.00,meteohub,2013-09-24 17:11:00,
2013-09-24 12:16:00,77.0,61.5,-100.00,East,101,0.0,13.0,59,0.00,,,0.00,meteohub,2013-09-24 17:16:00,
2013-09-24 12:21:00,76.6,61.7,-100.00,East,86,0.0,13.0,60,0.00,,,0.00,meteohub,2013-09-24 17:21:00,
2013-09-24 12:27:00,76.6,61.2,-100.00,ESE,114,5.0,10.0,59,0.00,,,0.00,meteohub,2013-09-24 17:27:00,
2013-09-24 12:32:00,77.0,62.1,-100.00,ENE,69,2.0,16.0,60,0.00,,,0.00,meteohub,2013-09-24 17:32:00,
2013-09-24 12:38:00,77.5,61.5,-100.00,ESE,117,4.0,16.0,58,0.00,,,0.00,meteohub,2013-09-24 17:38:00,
2013-09-24 12:43:00,77.2,61.7,-100.00,ENE,74,3.0,16.0,59,0.00,,,0.00,meteohub,2013-09-24 17:43:00,
2013-09-24 12:48:00,77.2,61.3,-100.00,ESE,106,5.0,12.0,58,0.00,,,0.00,meteohub,2013-09-24 17:48:00,
2013-09-24 12:53:00,76.8,61.3,-100.00,ESE,115,11.0,13.0,59,0.00,,,0.00,meteohub,2013-09-24 17:53:00,
2013-09-24 12:58:00,77.4,61.9,-100.00,ESE,115,2.0,13.0,59,0.00,,,0.00,meteohub,2013-09-24 17:58:00,
2013-09-24 13:03:00,77.2,61.3,-100.00,ESE,114,3.0,13.0,58,0.00,,,0.00,meteohub,2013-09-24 18:03:00,
2013-09-24 13:08:00,76.6,61.7,-100.00,SE,137,2.0,13.0,60,0.00,,,0.00,meteohub,2013-09-24 18:08:00,
2013-09-24 13:13:00,76.6,61.7,-100.00,ESE,121,5.0,13.0,60,0.00,,,0.00,meteohub,2013-09-24 18:13:00,
2013-09-24 13:18:00,77.0,62.1,-100.00,ESE,107,3.0,12.0,60,0.00,,,0.00,meteohub,2013-09-24 18:18:00,
2013-09-24 13:23:00,77.5,61.5,-100.00,ESE,103,4.0,10.0,58,0.00,,,0.00,meteohub,2013-09-24 18:23:00,
2013-09-24 13:28:00,77.7,61.7,-100.00,ESE,106,0.0,10.0,58,0.00,,,0.00,meteohub,2013-09-24 18:28:00,
2013-09-24 13:33:00,78.3,61.7,-100.00,ESE,105,3.0,10.0,57,0.00,,,0.00,meteohub,2013-09-24 18:33:00,
2013-09-24 13:38:00,78.3,62.2,-100.00,ESE,117,2.0,10.0,58,0.00,,,0.00,meteohub,2013-09-24 18:38:00,
2013-09-24 13:43:00,78.4,62.4,-100.00,ESE,118,4.0,10.0,58,0.00,,,0.00,meteohub,2013-09-24 18:43:00,
2013-09-24 13:48:00,77.5,61.5,-100.00,East,90,3.0,10.0,58,0.00,,,0.00,meteohub,2013-09-24 18:48:00,
2013-09-24 13:53:00,77.4,61.9,-100.00,ENE,74,0.0,10.0,59,0.00,,,0.00,meteohub,2013-09-24 18:53:00,
2013-09-24 13:58:00,77.5,62.1,-100.00,ESE,105,6.0,9.0,59,0.00,,,0.00,meteohub,2013-09-24 18:58:00,
2013-09-24 14:03:00,77.5,62.6,-100.00,ESE,115,5.0,9.0,60,0.00,,,0.00,meteohub,2013-09-24 19:03:00,
2013-09-24 14:08:00,77.5,61.5,-100.00,SE,126,7.0,11.0,58,0.00,,,0.00,meteohub,2013-09-24 19:08:00,
2013-09-24 14:13:00,77.4,61.3,-100.00,East,92,3.0,11.0,58,0.00,,,0.00,meteohub,2013-09-24 19:13:00,
2013-09-24 14:18:00,77.9,62.4,-100.00,ESE,109,6.0,12.0,59,0.00,,,0.00,meteohub,2013-09-24 19:18:00,
2013-09-24 14:23:00,78.1,62.1,-100.00,ESE,118,10.0,12.0,58,0.00,,,0.00,meteohub,2013-09-24 19:23:00,
2013-09-24 14:28:00,78.1,62.1,-100.00,ESE,122,0.0,12.0,58,0.00,,,0.00,meteohub,2013-09-24 19:28:00,
2013-09-24 14:33:00,77.9,62.4,-100.00,ESE,109,3.0,14.0,59,0.00,,,0.00,meteohub,2013-09-24 19:33:00,
2013-09-24 14:38:00,77.5,61.5,-100.00,ENE,75,0.0,14.0,58,0.00,,,0.00,meteohub,2013-09-24 19:38:00,
2013-09-24 14:43:00,77.2,61.7,-100.00,ESE,105,4.0,11.0,59,0.00,,,0.00,meteohub,2013-09-24 19:43:00,
2013-09-24 14:48:00,77.4,61.9,-100.00,East,92,0.0,12.0,59,0.00,,,0.00,meteohub,2013-09-24 19:48:00,
2013-09-24 14:53:00,77.7,61.7,-100.00,SE,136,6.0,12.0,58,0.00,,,0.00,meteohub,2013-09-24 19:53:00,
2013-09-24 14:58:00,77.4,61.9,-100.00,ESE,119,0.0,12.0,59,0.00,,,0.00,meteohub,2013-09-24 19:58:00,
2013-09-24 15:03:00,77.2,61.7,-100.00,East,98,2.0,11.0,59,0.00,,,0.00,meteohub,2013-09-24 20:03:00,
2013-09-24 15:08:00,76.6,61.7,-100.00,ESE,115,5.0,11.0,60,0.00,,,0.00,meteohub,2013-09-24 20:08:00,
2013-09-24 15:13:00,77.7,61.7,-100.00,ESE,117,6.0,11.0,58,0.00,,,0.00,meteohub,2013-09-24 20:13:00,
2013-09-24 15:18:00,77.7,62.2,-100.00,ESE,117,0.0,12.0,59,0.00,,,0.00,meteohub,2013-09-24 20:18:00,
2013-09-24 15:23:00,77.0,61.5,-100.00,ESE,120,5.0,12.0,59,0.00,,,0.00,meteohub,2013-09-24 20:23:00,
2013-09-24 15:28:00,76.6,61.7,-100.00,East,96,1.0,12.0,60,0.00,,,0.00,meteohub,2013-09-24 20:28:00,
2013-09-24 15:33:00,77.0,62.1,-100.00,ESE,103,3.0,12.0,60,0.00,,,0.00,meteohub,2013-09-24 20:33:00,
2013-09-24 15:38:00,77.4,61.9,-100.00,ESE,110,9.0,10.0,59,0.00,,,0.00,meteohub,2013-09-24 20:38:00,
2013-09-24 15:43:00,77.4,61.3,-100.00,East,91,5.0,12.0,58,0.00,,,0.00,meteohub,2013-09-24 20:43:00,
2013-09-24 15:48:00,77.4,61.9,-100.00,ESE,115,7.0,13.0,59,0.00,,,0.00,meteohub,2013-09-24 20:48:00,
2013-09-24 15:53:00,77.4,61.9,-100.00,SE,128,6.0,13.0,59,0.00,,,0.00,meteohub,2013-09-24 20:53:00,
2013-09-24 15:58:00,77.7,62.2,-100.00,ESE,115,5.0,11.0,59,0.00,,,0.00,meteohub,2013-09-24 20:58:00,
2013-09-24 16:04:00,77.7,62.2,-100.00,ESE,115,7.0,10.0,59,0.00,,,0.00,meteohub,2013-09-24 21:04:00,
2013-09-24 16:09:00,77.5,62.1,-100.00,East,99,5.0,10.0,59,0.00,,,0.00,meteohub,2013-09-24 21:09:00,
2013-09-24 16:14:00,77.4,62.4,-100.00,ESE,111,1.0,11.0,60,0.00,,,0.00,meteohub,2013-09-24 21:14:00,
2013-09-24 16:19:00,77.0,62.1,-100.00,SE,141,5.0,11.0,60,0.00,,,0.00,meteohub,2013-09-24 21:19:00,
2013-09-24 16:24:00,77.0,62.6,-100.00,East,88,2.0,11.0,61,0.00,,,0.00,meteohub,2013-09-24 21:24:00,
2013-09-24 16:29:00,77.4,62.4,-100.00,ESE,113,4.0,10.0,60,0.00,,,0.00,meteohub,2013-09-24 21:29:00,
2013-09-24 16:34:00,77.4,62.4,-100.00,ESE,118,3.0,9.0,60,0.00,,,0.00,meteohub,2013-09-24 21:34:00,
2013-09-24 16:39:00,77.5,62.6,-100.00,East,88,0.0,12.0,60,0.00,,,0.00,meteohub,2013-09-24 21:39:00,
2013-09-24 16:44:00,77.5,62.1,-100.00,ESE,109,0.0,12.0,59,0.00,,,0.00,meteohub,2013-09-24 21:44:00,
2013-09-24 16:49:00,77.2,62.2,-100.00,East,91,3.0,12.0,60,0.00,,,0.00,meteohub,2013-09-24 21:49:00,
2013-09-24 16:54:00,76.6,62.2,-100.00,ESE,102,5.0,11.0,61,0.00,,,0.00,meteohub,2013-09-24 21:54:00,
2013-09-24 16:59:00,76.5,62.1,-100.00,East,97,5.0,11.0,61,0.00,,,0.00,meteohub,2013-09-24 21:59:00,
2013-09-24 17:04:00,76.8,62.4,-100.00,ESE,114,0.0,10.0,61,0.00,,,0.00,meteohub,2013-09-24 22:04:00,
2013-09-24 17:09:00,77.2,62.2,-100.00,ESE,113,0.0,11.0,60,0.00,,,0.00,meteohub,2013-09-24 22:09:00,
2013-09-24 17:14:00,77.4,61.9,-100.00,SE,128,2.0,11.0,59,0.00,,,0.00,meteohub,2013-09-24 22:14:00,
2013-09-24 17:19:00,77.0,62.1,-100.00,East,100,1.0,10.0,60,0.00,,,0.00,meteohub,2013-09-24 22:19:00,
2013-09-24 17:24:00,77.0,62.1,-100.00,East,97,5.0,11.0,60,0.00,,,0.00,meteohub,2013-09-24 22:24:00,
2013-09-24 17:29:00,76.8,61.9,-100.00,ENE,61,3.0,11.0,60,0.00,,,0.00,meteohub,2013-09-24 22:29:00,
2013-09-24 17:34:00,76.6,61.7,-100.00,East,83,4.0,11.0,60,0.00,,,0.00,meteohub,2013-09-24 22:34:00,
2013-09-24 17:39:00,76.5,61.5,-100.00,East,93,6.0,9.0,60,0.00,,,0.00,meteohub,2013-09-24 22:39:00,
2013-09-24 17:44:00,76.3,61.9,-100.00,East,79,6.0,10.0,61,0.00,,,0.00,meteohub,2013-09-24 22:44:00,
2013-09-24 17:49:00,76.1,61.7,-100.00,ESE,107,2.0,10.0,61,0.00,,,0.00,meteohub,2013-09-24 22:49:00,
2013-09-24 17:54:00,75.9,61.5,-100.00,East,94,1.0,11.0,61,0.00,,,0.00,meteohub,2013-09-24 22:54:00,
2013-09-24 17:59:00,75.7,61.3,-100.00,East,80,4.0,11.0,61,0.00,,,0.00,meteohub,2013-09-24 22:59:00,
2013-09-24 18:04:00,75.6,61.7,-100.00,East,82,2.0,11.0,62,0.00,,,0.00,meteohub,2013-09-24 23:04:00,
2013-09-24 18:09:00,75.4,61.5,-100.00,East,91,2.0,7.0,62,0.00,,,0.00,meteohub,2013-09-24 23:09:00,
2013-09-24 18:14:00,75.4,61.5,-100.00,East,86,1.0,6.0,62,0.00,,,0.00,meteohub,2013-09-24 23:14:00,
2013-09-24 18:19:00,75.0,61.2,-100.00,ESE,107,2.0,6.0,62,0.00,,,0.00,meteohub,2013-09-24 23:19:00,
2013-09-24 18:24:00,74.8,61.3,-100.00,East,82,4.0,7.0,63,0.00,,,0.00,meteohub,2013-09-24 23:24:00,
2013-09-24 18:29:00,74.8,61.3,-100.00,East,82,2.0,8.0,63,0.00,,,0.00,meteohub,2013-09-24 23:29:00,
2013-09-24 18:34:00,74.7,61.2,-100.00,East,82,2.0,8.0,63,0.00,,,0.00,meteohub,2013-09-24 23:34:00,
2013-09-24 18:39:00,74.7,61.2,-100.00,East,81,0.0,8.0,63,0.00,,,0.00,meteohub,2013-09-24 23:39:00,
2013-09-24 18:44:00,74.5,61.5,-100.00,ENE,76,0.0,7.0,64,0.00,,,0.00,meteohub,2013-09-24 23:44:00,
2013-09-24 18:49:00,74.1,61.2,-100.00,ENE,76,2.0,6.0,64,0.00,,,0.00,meteohub,2013-09-24 23:49:00,
2013-09-24 18:54:00,73.9,61.0,-100.00,ENE,78,3.0,6.0,64,0.00,,,0.00,meteohub,2013-09-24 23:54:00,
2013-09-24 18:59:00,73.8,61.3,-100.00,ENE,71,0.0,6.0,65,0.00,,,0.00,meteohub,2013-09-24 23:59:00,
2013-09-24 19:04:00,73.4,61.0,-100.00,ENE,75,1.0,6.0,65,0.00,,,0.00,meteohub,2013-09-25 00:04:00,
2013-09-24 19:09:00,73.0,61.0,-100.00,ENE,78,0.0,6.0,66,0.00,,,0.00,meteohub,2013-09-25 00:09:00,
2013-09-24 19:14:00,73.0,61.0,-100.00,East,89,4.0,6.0,66,0.00,,,0.00,meteohub,2013-09-25 00:14:00,
2013-09-24 19:19:00,72.9,60.8,-100.00,NE,41,2.0,7.0,66,0.00,,,0.00,meteohub,2013-09-25 00:19:00,
2013-09-24 19:24:00,72.3,60.8,-100.00,East,86,1.0,7.0,67,0.00,,,0.00,meteohub,2013-09-25 00:24:00,
2013-09-24 19:29:00,72.1,61.0,-100.00,NE,53,2.0,7.0,68,0.00,,,0.00,meteohub,2013-09-25 00:29:00,
2013-09-24 19:34:00,71.8,60.6,-100.00,NE,53,3.0,9.0,68,0.00,,,0.00,meteohub,2013-09-25 00:34:00,
2013-09-24 19:39:00,71.4,60.3,-100.00,ENE,64,2.0,9.0,68,0.00,,,0.00,meteohub,2013-09-25 00:39:00,
2013-09-24 19:44:00,71.2,60.6,-100.00,NE,55,2.0,9.0,69,0.00,,,0.00,meteohub,2013-09-25 00:44:00,
2013-09-24 19:49:00,71.1,60.8,-100.00,ENE,68,3.0,9.0,70,0.00,,,0.00,meteohub,2013-09-25 00:49:00,
2013-09-24 19:54:00,70.9,60.6,-100.00,East,82,5.0,7.0,70,0.00,,,0.00,meteohub,2013-09-25 00:54:00,
2013-09-24 19:59:00,70.9,60.6,-100.00,ENE,67,5.0,9.0,70,0.00,,,0.00,meteohub,2013-09-25 00:59:00,
2013-09-24 20:04:00,70.9,60.6,-100.00,ENE,73,2.0,10.0,70,0.00,,,0.00,meteohub,2013-09-25 01:04:00,
2013-09-24 20:09:00,70.5,60.3,-100.00,East,83,4.0,10.0,70,0.00,,,0.00,meteohub,2013-09-25 01:09:00,
2013-09-24 20:14:00,70.3,60.4,-100.00,ENE,78,4.0,10.0,71,0.00,,,0.00,meteohub,2013-09-25 01:14:00,
2013-09-24 20:19:00,70.3,60.4,-100.00,ENE,72,0.0,9.0,71,0.00,,,0.00,meteohub,2013-09-25 01:19:00,
2013-09-24 20:24:00,70.3,60.4,-100.00,ENE,71,0.0,9.0,71,0.00,,,0.00,meteohub,2013-09-25 01:24:00,
2013-09-24 20:29:00,70.2,60.3,-100.00,NE,56,4.0,9.0,71,0.00,,,0.00,meteohub,2013-09-25 01:29:00,
2013-09-24 20:34:00,70.2,60.3,-100.00,East,91,5.0,9.0,71,0.00,,,0.00,meteohub,2013-09-25 01:34:00,
2013-09-24 20:39:00,70.0,60.6,-100.00,NE,52,2.0,10.0,72,0.00,,,0.00,meteohub,2013-09-25 01:39:00,
2013-09-24 20:45:00,69.8,60.4,-100.00,NE,44,4.0,10.0,72,0.00,,,0.00,meteohub,2013-09-25 01:45:00,
2013-09-24 20:50:00,69.8,60.4,-100.00,ENE,71,3.0,10.0,72,0.00,,,0.00,meteohub,2013-09-25 01:50:00,
2013-09-24 20:55:00,70.0,60.1,-100.00,East,88,5.0,7.0,71,0.00,,,0.00,meteohub,2013-09-25 01:55:00,
2013-09-24 21:00:00,70.2,60.3,-100.00,East,80,4.0,10.0,71,0.00,,,0.00,meteohub,2013-09-25 02:00:00,
2013-09-24 21:05:00,70.2,60.3,-100.00,ENE,72,1.0,10.0,71,0.00,,,0.00,meteohub,2013-09-25 02:05:00,
2013-09-24 21:10:00,70.2,60.3,-100.00,ENE,76,0.0,10.0,71,0.00,,,0.00,meteohub,2013-09-25 02:10:00,
2013-09-24 21:15:00,70.0,60.1,-100.00,East,96,0.0,10.0,71,0.00,,,0.00,meteohub,2013-09-25 02:15:00,
2013-09-24 21:20:00,70.0,60.1,-100.00,ENE,76,3.0,6.0,71,0.00,,,0.00,meteohub,2013-09-25 02:20:00,
2013-09-24 21:25:00,69.6,60.3,-100.00,NE,47,0.0,9.0,72,0.00,,,0.00,meteohub,2013-09-25 02:25:00,
2013-09-24 21:30:00,69.6,60.3,-100.00,ENE,62,0.0,9.0,72,0.00,,,0.00,meteohub,2013-09-25 02:30:00,
2013-09-24 21:35:00,69.4,60.1,-100.00,ENE,76,0.0,7.0,72,0.00,,,0.00,meteohub,2013-09-25 02:35:00,
2013-09-24 21:40:00,69.4,60.4,-100.00,East,94,5.0,6.0,73,0.00,,,0.00,meteohub,2013-09-25 02:40:00,
2013-09-24 21:45:00,69.4,60.4,-100.00,East,83,0.0,7.0,73,0.00,,,0.00,meteohub,2013-09-25 02:45:00,
2013-09-24 21:50:00,69.4,60.1,-100.00,ENE,67,1.0,7.0,72,0.00,,,0.00,meteohub,2013-09-25 02:50:00,
2013-09-24 21:55:00,69.4,60.1,-100.00,ENE,73,0.0,7.0,72,0.00,,,0.00,meteohub,2013-09-25 02:55:00,
2013-09-24 22:00:00,69.4,60.4,-100.00,ENE,71,3.0,5.0,73,0.00,,,0.00,meteohub,2013-09-25 03:00:00,
2013-09-24 22:05:00,69.3,60.3,-100.00,ENE,59,1.0,5.0,73,0.00,,,0.00,meteohub,2013-09-25 03:05:00,
2013-09-24 22:10:00,69.3,60.3,-100.00,ENE,59,0.0,5.0,73,0.00,,,0.00,meteohub,2013-09-25 03:10:00,
2013-09-24 22:15:00,69.3,60.3,-100.00,ESE,115,3.0,6.0,73,0.00,,,0.00,meteohub,2013-09-25 03:15:00,
2013-09-24 22:20:00,69.3,60.3,-100.00,ESE,104,0.0,6.0,73,0.00,,,0.00,meteohub,2013-09-25 03:20:00,
2013-09-24 22:25:00,69.1,60.1,-100.00,ESE,103,0.0,6.0,73,0.00,,,0.00,meteohub,2013-09-25 03:25:00,
2013-09-24 22:30:00,68.9,60.3,-100.00,NE,56,0.0,3.0,74,0.00,,,0.00,meteohub,2013-09-25 03:30:00,
2013-09-24 22:35:00,68.7,60.1,-100.00,NE,56,0.0,5.0,74,0.00,,,0.00,meteohub,2013-09-25 03:35:00,
2013-09-24 22:40:00,68.7,59.7,-100.00,ENE,65,0.0,5.0,73,0.00,,,0.00,meteohub,2013-09-25 03:40:00,
2013-09-24 22:45:00,68.7,59.7,-100.00,ENE,64,0.0,4.0,73,0.00,,,0.00,meteohub,2013-09-25 03:45:00,
2013-09-24 22:50:00,68.7,60.1,-100.00,ENE,64,0.0,4.0,74,0.00,,,0.00,meteohub,2013-09-25 03:50:00,
2013-09-24 22:55:00,68.5,59.5,-100.00,ENE,64,0.0,3.0,73,0.00,,,0.00,meteohub,2013-09-25 03:55:00,
2013-09-24 23:00:00,68.5,59.9,-100.00,ENE,64,0.0,0.0,74,0.00,,,0.00,meteohub,2013-09-25 04:00:00,
2013-09-24 23:01:00,68.5,59.9,-100.00,ENE,64,0.0,0.0,74,0.00,,,0.00,meteohub,2013-09-25 04:01:00,
2013-09-24 23:06:00,68.5,59.9,-100.00,ENE,64,0.0,0.0,74,0.00,,,0.00,meteohub,2013-09-25 04:06:00,
2013-09-24 23:11:00,68.5,59.9,-100.00,ENE,64,0.0,0.0,74,0.00,,,0.00,meteohub,2013-09-25 04:11:00,
2013-09-24 23:16:00,68.4,59.7,-100.00,ENE,64,0.0,0.0,74,0.00,,,0.00,meteohub,2013-09-25 04:16:00,
2013-09-24 23:22:00,68.2,59.9,-100.00,ENE,64,0.0,0.0,75,0.00,,,0.00,meteohub,2013-09-25 04:22:00,
2013-09-24 23:27:00,67.8,59.9,-100.00,ENE,67,0.0,1.0,76,0.00,,,0.00,meteohub,2013-09-25 04:27:00,
2013-09-24 23:32:00,68.0,59.7,-100.00,ESE,120,0.0,7.0,75,0.00,,,0.00,meteohub,2013-09-25 04:32:00,
2013-09-24 23:37:00,68.0,59.7,-100.00,ESE,119,0.0,7.0,75,0.00,,,0.00,meteohub,2013-09-25 04:37:00,
2013-09-24 23:42:00,68.0,59.7,-100.00,ESE,119,0.0,7.0,75,0.00,,,0.00,meteohub,2013-09-25 04:42:00,
2013-09-24 23:47:00,67.8,59.5,-100.00,ESE,117,0.0,1.0,75,0.00,,,0.00,meteohub,2013-09-25 04:47:00,
2013-09-24 23:52:00,67.6,59.4,-100.00,ESE,117,0.0,0.0,75,0.00,,,0.00,meteohub,2013-09-25 04:52:00,
2013-09-24 23:57:00,67.5,59.5,-100.00,East,96,0.0,1.0,76,0.00,,,0.00,meteohub,2013-09-25 04:57:00,